Погода в Куэрнаваке

Мексика     18°56′09″N   99°14′50″W
темп.,
°C
ветер,
м/с
пор.,
м/с
влажн.,
%
обл.,
%
осадки,
мм/ч
давл.,
гПа
погр.,
м
5 декабря, вс
вс500:00+12с22480 0.0 102025
03:00+11с21540 0.0 101919
06:00+11ссз21641 0.0 102017
09:00+15ю21510 0.0 1021497
12:00+18ю32412 0.0 10181158
15:00+19ю324044 0.0 10141347
18:00+14юв015610 0.0 101756
21:00+13ссз1158100 0.0 101918
6 декабря, пн
пн600:00+13ссз216296 0.0 102021
03:00+12ссз2168100 0.0 101918
06:00+11с226843 0.0 102121
09:00+15ююв1148100 0.0 1021269
12:00+19ю3338100 0.0 10191355
15:00+20ю32395 0.0 10161284
18:00+15зюз015684 0.0 101815
21:00+14ссз215717 0.0 102024
7 декабря, вт
вт700:00+13с32542 0.0 101928
03:00+12с22540 0.0 101821
06:00+11с32550 0.0 101924
09:00+16ююв11400 0.0 1019274
12:00+20ю323132 0.0 10171175
15:00+21ю322980 0.0 10131416
18:00+15св00455 0.0 101515
21:00+14ссз22493 0.0 101824
8 декабря, ср
ср800:00+13с22520 0.0 101824
03:00+12с22535 0.0 101820
06:00+12с225516 0.0 101924
09:00+17ююв114393 0.0 1020311
12:00+20ю32345 0.0 10171459
15:00+21ю32375 0.0 10141246
18:00+15св11522 0.0 101714
21:00+14ссз22530 0.0 101924
9 декабря, чт
чт900:00+13ссз21540 0.0 101920
03:00+12ссз22580 0.0 101821
06:00+12ссз22590 0.0 101918
09:00+16ю11450 0.0 1020310
12:00+20ю33351 0.0 10181387
15:00+21ю33350 0.0 10151302
18:00+15ссз01480 0.0 101712
21:00+14с22490 0.0 101924